This is the latest recevied weather packets stored in our database for station/object NEWPRT. If no packets are shown the sender has not sent any weather packets the latest 10 day(s).
| Time | Temp. | Humidity | Pressure | Rain* | Wind** | Luminosity | Snow |
|---|---|---|---|---|---|---|---|
| 1777622418 | - | 84% | 1018.8 hPa | 0.25 mm | - | - | - |
| 1777622094 | - | 86% | 1019.1 hPa | 0.25 mm | - | - | - |
| 1777621772 | - | 86% | 1018.9 hPa | 0.25 mm | - | - | - |
| 1777621448 | - | 85% | 1018.7 hPa | 0.25 mm | - | - | - |
| 1777621125 | - | 86% | 1018.7 hPa | 0.25 mm | - | - | - |
| 1777620802 | - | 85% | 1018.7 hPa | 0 mm | - | - | - |
| 1777620479 | - | 85% | 1018.7 hPa | 0 mm | - | - | - |
| 1777620156 | - | 86% | 1018.5 hPa | 0 mm | - | - | - |
| 1777619834 | - | 84% | 1018.7 hPa | 0 mm | - | - | - |
| 1777619510 | - | 86% | 1018.6 hPa | 0 mm | - | - | - |
| 1777619187 | - | 84% | 1018.5 hPa | 0 mm | - | - | - |
| 1777618866 | - | 85% | 1018.1 hPa | 0 mm | - | - | - |
| 1777618541 | - | 85% | 1018.4 hPa | 0 mm | - | - | - |
| 1777618219 | - | 84% | 1018.3 hPa | 0 mm | - | - | - |
| 1777617895 | - | 86% | 1018.5 hPa | 0 mm | - | - | - |
| 1777617572 | - | 85% | 1018 hPa | 0 mm | - | - | - |
| 1777617250 | - | 85% | 1018.3 hPa | 0 mm | - | - | - |
| 1777616926 | - | 87% | 1018 hPa | 0 mm | - | - | - |
| 1777616603 | - | 87% | 1018.3 hPa | 0 mm | - | - | - |
| 1777616281 | - | 86% | 1018.1 hPa | 0 mm | - | - | - |
| 1777615957 | - | 86% | 1018.2 hPa | 0 mm | - | - | - |
| 1777615636 | - | 84% | 1018 hPa | 0 mm | - | - | - |
| 1777615313 | - | 87% | 1018.2 hPa | 0 mm | - | - | - |
| 1777614988 | - | 85% | 1018.2 hPa | 0 mm | - | - | - |
| 1777614665 | - | 86% | 1018.1 hPa | 0 mm | - | - | - |
* Rain latest hour (hover to see other rain measurements)
** Current wind speed in m/s (hover to see current wind gust speed)